This is the latest recevied weather packets stored in our database for station/object W4KUS-10. If no packets are shown the sender has not sent any weather packets the latest 10 day(s).
| Time | Temp. | Humidity | Pressure | Rain* | Wind** | Luminosity | Snow |
|---|---|---|---|---|---|---|---|
| 1777742141 | 15° C | 93% | 1010.1 hPa | 1.27 mm | - | - | - |
| 1777741841 | 15° C | 93% | 1010.4 hPa | 1.27 mm | - | - | - |
| 1777741541 | 15.56° C | 93% | 1010.4 hPa | 1.27 mm | - | - | - |
| 1777741240 | 15.56° C | 94% | 1010.4 hPa | 1.27 mm | - | - | - |
| 1777740941 | 15.56° C | 94% | 1010.4 hPa | 1.78 mm | - | - | - |
| 1777740641 | 15.56° C | 94% | 1010.4 hPa | 1.52 mm | - | - | - |
| 1777740341 | 15.56° C | 94% | 1010.5 hPa | 2.29 mm | - | - | - |
| 1777740040 | 15° C | 94% | 1010.8 hPa | 2.54 mm | - | - | - |
| 1777739741 | 15° C | 93% | 1010.8 hPa | 2.54 mm | - | - | - |
| 1777739441 | 15° C | 93% | 1010.7 hPa | 2.54 mm | - | - | - |
| 1777739141 | 15.56° C | 93% | 1011.1 hPa | 1.52 mm | - | - | - |
| 1777738841 | 15.56° C | 93% | 1011.1 hPa | 1.78 mm | - | - | - |
| 1777738541 | 15.56° C | 93% | 1011 hPa | 1.02 mm | - | - | - |
| 1777738241 | 15.56° C | 94% | 1010.7 hPa | 1.02 mm | - | - | - |
| 1777737941 | 15.56° C | 93% | 1010.6 hPa | 0 mm | - | - | - |
| 1777737641 | 15.56° C | 93% | 1010.6 hPa | 0 mm | - | - | - |
| 1777737341 | 15.56° C | 93% | 1010.7 hPa | 0.76 mm | - | - | - |
| 1777737041 | 15° C | 93% | 1010.9 hPa | 1.02 mm | - | - | - |
| 1777736741 | 15° C | 93% | 1011.2 hPa | 1.52 mm | - | - | - |
| 1777736440 | 15° C | 93% | 1011.2 hPa | 1.27 mm | - | - | - |
| 1777736140 | 15° C | 93% | 1011.3 hPa | 1.52 mm | - | - | - |
| 1777735840 | 15° C | 93% | 1011.3 hPa | 2.03 mm | - | - | - |
| 1777735541 | 15° C | 92% | 1011.4 hPa | 2.54 mm | - | - | - |
| 1777735241 | 15° C | 92% | 1011.5 hPa | 3.05 mm | - | - | - |
| 1777734940 | 15° C | 92% | 1011.4 hPa | 3.56 mm | - | - | - |
* Rain latest hour (hover to see other rain measurements)
** Current wind speed in m/s (hover to see current wind gust speed)